Location: Kergonan
(48.2337°N, 4.5518°W)
Time: 21:59:29
(UTC+00:00)

Meteor 1-16 Rocket - Pass Details

Date: 18 January 2020
Orbit: 789 x 908 km, 81.2° (Epoch: 17 February)

Event Time Altitude Azimuth Distance (km) Brightness Sun altitude
Rises 06:45:27 0° 197° (SSW) 3,522 7.4 -12.5°
Reaches altitude 10° 06:47:55 10° 199° (SSW) 2,586 6.7 -12.1°
Maximum altitude 06:53:49 70° 283° (WNW) 963 4.3 -11.2°
Drops below altitude 10° 06:59:43 10° 8° (N) 2,576 6.6 -10.3°
Sets 07:02:11 0° 11° (N) 3,508 7.3 -9.9°
